Orbital Elements at Epoch 2459200.5 (2020-Dec-17.0) TDB
Reference: JPL 15 (heliocentric ecliptic J2000)
Element | Value | Uncertainty (1-sigma) | Units |
e | .02000307537061528 | 7.0896e-08 | |
a | 5.226822033161087 | 1.7192e-07 | au |
q | 5.122269518082973 | 4.9295e-07 | au |
i | 27.29750718480168 | 9.5043e-06 | deg |
node | 15.19152906299916 | 1.1753e-05 | deg |
peri | 241.3254763871174 | 0.00023637 | deg |
M | 322.1735027333158 | 0.00023724 | deg |
tp | 2459659.115388775874 (2022-Mar-20.61538878) | 0.0028766 | TDB |
period | 4364.706010057359 11.95 | 0.00021535 5.896e-07 | d yr |
n | .08247978195334833 | 4.0694e-09 | deg/d |
Q | 5.3313745482392 | 1.7536e-07 | au |
|
| | Orbit Determination Parameters
Additional Information
|